Time,TemperatureF,DewpointF,PressureIn,WindDirection,WindDirectionDegrees,WindSpeedMPH,WindSpeedGustMPH,Humidity,HourlyPrecipIn,Conditions,Clouds,dailyrainin,SoftwareType,DateUTC
2013-09-24 00:09:00,76.0,66.0,30.57,East,82,0.0,-999.0,71,-99.99,,,0.00,weatherlink.com 1.10,2013-09-24 05:09:00,
2013-09-24 00:24:00,75.7,66.0,30.57,East,82,0.0,-999.0,71,-99.99,,,0.00,weatherlink.com 1.10,2013-09-24 05:24:00,
2013-09-24 00:39:00,74.7,64.0,30.58,East,82,0.0,-999.0,70,-99.99,,,0.00,weatherlink.com 1.10,2013-09-24 05:39:00,
2013-09-24 00:54:00,74.0,64.0,30.57,East,82,0.0,-999.0,70,-99.99,,,0.00,weatherlink.com 1.10,2013-09-24 05:54:00,
2013-09-24 01:09:00,73.5,63.0,30.58,East,82,0.0,-999.0,69,-99.99,,,0.00,weatherlink.com 1.10,2013-09-24 06:09:00,
2013-09-24 01:24:00,73.3,63.0,30.58,East,82,0.0,-999.0,69,-99.99,,,0.00,weatherlink.com 1.10,2013-09-24 06:24:00,
2013-09-24 01:39:00,72.9,62.0,30.59,East,82,0.0,-999.0,68,-99.99,,,0.00,weatherlink.com 1.10,2013-09-24 06:39:00,
2013-09-24 01:54:00,72.6,61.0,30.58,East,82,0.0,-999.0,68,-99.99,,,0.00,weatherlink.com 1.10,2013-09-24 06:54:00,
2013-09-24 02:09:00,72.5,61.0,30.59,East,82,0.0,-999.0,68,-99.99,,,0.00,weatherlink.com 1.10,2013-09-24 07:09:00,
2013-09-24 02:24:00,72.4,61.0,30.58,East,82,0.0,-999.0,68,-99.99,,,0.00,weatherlink.com 1.10,2013-09-24 07:24:00,
2013-09-24 02:38:00,72.0,61.0,30.58,East,82,0.0,-999.0,68,-99.99,,,0.00,weatherlink.com 1.10,2013-09-24 07:38:00,
2013-09-24 02:53:00,71.8,60.0,30.58,East,82,0.0,-999.0,67,-99.99,,,0.00,weatherlink.com 1.10,2013-09-24 07:53:00,
2013-09-24 03:08:00,71.7,60.0,30.58,East,82,0.0,-999.0,67,-99.99,,,0.00,weatherlink.com 1.10,2013-09-24 08:08:00,
2013-09-24 03:24:00,71.6,60.0,30.58,East,82,0.0,-999.0,67,-99.99,,,0.00,weatherlink.com 1.10,2013-09-24 08:24:00,
2013-09-24 03:39:00,71.5,60.0,30.58,East,82,0.0,-999.0,67,-99.99,,,0.00,weatherlink.com 1.10,2013-09-24 08:39:00,
2013-09-24 03:54:00,71.5,60.0,30.58,ENE,76,0.0,-999.0,67,-99.99,,,0.00,weatherlink.com 1.10,2013-09-24 08:54:00,
2013-09-24 04:09:00,71.7,60.0,30.58,ENE,76,0.0,-999.0,67,-99.99,,,0.00,weatherlink.com 1.10,2013-09-24 09:09:00,
2013-09-24 04:24:00,71.8,60.0,30.58,ENE,76,0.0,-999.0,67,-99.99,,,0.00,weatherlink.com 1.10,2013-09-24 09:24:00,
2013-09-24 04:39:00,72.0,60.0,30.57,ENE,76,0.0,-999.0,67,-99.99,,,0.00,weatherlink.com 1.10,2013-09-24 09:39:00,
2013-09-24 04:54:00,71.9,60.0,30.57,ENE,76,0.0,-999.0,67,-99.99,,,0.00,weatherlink.com 1.10,2013-09-24 09:54:00,
2013-09-24 05:09:00,72.2,61.0,30.57,ENE,76,0.0,-999.0,67,-99.99,,,0.00,weatherlink.com 1.10,2013-09-24 10:09:00,
2013-09-24 05:24:00,72.3,61.0,30.57,ENE,76,0.0,-999.0,68,-99.99,,,0.00,weatherlink.com 1.10,2013-09-24 10:24:00,
2013-09-24 05:39:00,71.9,61.0,30.58,ENE,76,0.0,-999.0,68,-99.99,,,0.00,weatherlink.com 1.10,2013-09-24 10:39:00,
2013-09-24 05:54:00,71.4,60.0,30.58,ENE,76,0.0,-999.0,68,-99.99,,,0.00,weatherlink.com 1.10,2013-09-24 10:54:00,
2013-09-24 06:09:00,71.0,60.0,30.58,ENE,76,0.0,-999.0,68,-99.99,,,0.00,weatherlink.com 1.10,2013-09-24 11:09:00,
2013-09-24 06:24:00,70.9,60.0,30.59,ENE,76,0.0,-999.0,68,-99.99,,,0.00,weatherlink.com 1.10,2013-09-24 11:24:00,
2013-09-24 06:39:00,70.7,59.0,30.59,ENE,74,0.0,-999.0,67,-99.99,,,0.00,weatherlink.com 1.10,2013-09-24 11:39:00,
2013-09-24 06:54:00,70.6,59.0,30.60,ENE,74,0.0,-999.0,67,-99.99,,,0.00,weatherlink.com 1.10,2013-09-24 11:54:00,
2013-09-24 07:09:00,70.4,59.0,30.61,ENE,74,0.0,-999.0,67,-99.99,,,0.00,weatherlink.com 1.10,2013-09-24 12:09:00,
2013-09-24 07:24:00,70.3,59.0,30.60,ENE,74,0.0,-999.0,67,-99.99,,,0.00,weatherlink.com 1.10,2013-09-24 12:24:00,
2013-09-24 07:39:00,70.3,59.0,30.61,ENE,74,0.0,-999.0,67,-99.99,,,0.00,weatherlink.com 1.10,2013-09-24 12:39:00,
2013-09-24 07:54:00,70.9,59.0,30.62,ENE,74,0.0,-999.0,67,-99.99,,,0.00,weatherlink.com 1.10,2013-09-24 12:54:00,
2013-09-24 08:09:00,72.0,60.0,30.62,ENE,74,0.0,-999.0,67,-99.99,,,0.00,weatherlink.com 1.10,2013-09-24 13:09:00,
2013-09-24 08:24:00,72.9,61.0,30.62,ENE,74,0.0,-999.0,67,-99.99,,,0.00,weatherlink.com 1.10,2013-09-24 13:24:00,
2013-09-24 08:39:00,74.5,63.0,30.62,NW,323,0.0,-999.0,68,-99.99,,,0.00,weatherlink.com 1.10,2013-09-24 13:39:00,
2013-09-24 08:54:00,75.9,65.0,30.63,NW,308,2.0,-999.0,69,-99.99,,,0.00,weatherlink.com 1.10,2013-09-24 13:54:00,
2013-09-24 09:09:00,77.2,66.0,30.63,WNW,286,1.0,-999.0,69,-99.99,,,0.00,weatherlink.com 1.10,2013-09-24 14:09:00,
2013-09-24 09:25:00,78.2,67.0,30.64,WNW,287,0.0,-999.0,69,-99.99,,,0.00,weatherlink.com 1.10,2013-09-24 14:25:00,
2013-09-24 09:39:00,80.4,69.0,30.63,NW,315,3.0,-999.0,69,-99.99,,,0.00,weatherlink.com 1.10,2013-09-24 14:39:00,
2013-09-24 09:54:00,81.8,70.0,30.64,NW,306,5.0,-999.0,68,-99.99,,,0.00,weatherlink.com 1.10,2013-09-24 14:54:00,
2013-09-24 10:09:00,82.8,71.0,30.64,SSW,202,1.0,-999.0,67,-99.99,,,0.00,weatherlink.com 1.10,2013-09-24 15:09:00,
2013-09-24 10:25:00,83.3,71.0,30.64,NW,319,3.0,-999.0,67,-99.99,,,0.00,weatherlink.com 1.10,2013-09-24 15:25:00,
2013-09-24 10:40:00,84.6,72.0,30.64,WNW,302,1.0,-999.0,65,-99.99,,,0.00,weatherlink.com 1.10,2013-09-24 15:40:00,
2013-09-24 10:55:00,85.0,71.0,30.64,NW,320,4.0,-999.0,64,-99.99,,,0.00,weatherlink.com 1.10,2013-09-24 15:55:00,
2013-09-24 11:10:00,85.6,71.0,30.63,NW,313,5.0,-999.0,62,-99.99,,,0.00,weatherlink.com 1.10,2013-09-24 16:10:00,
2013-09-24 11:25:00,85.8,71.0,30.64,NW,311,6.0,-999.0,61,-99.99,,,0.00,weatherlink.com 1.10,2013-09-24 16:25:00,
2013-09-24 11:39:00,87.0,71.0,30.63,NW,309,3.0,-999.0,60,-99.99,,,0.00,weatherlink.com 1.10,2013-09-24 16:39:00,
2013-09-24 11:54:00,87.6,71.0,30.63,NW,309,5.0,-999.0,58,-99.99,,,0.00,weatherlink.com 1.10,2013-09-24 16:54:00,
2013-09-24 12:09:00,88.2,69.0,30.63,NW,317,2.0,-999.0,54,-99.99,,,0.00,weatherlink.com 1.10,2013-09-24 17:09:00,
2013-09-24 12:25:00,88.4,69.0,30.62,NW,311,9.0,-999.0,53,-99.99,,,0.00,weatherlink.com 1.10,2013-09-24 17:25:00,
2013-09-24 12:39:00,89.3,69.0,30.62,NNW,331,5.0,-999.0,52,-99.99,,,0.00,weatherlink.com 1.10,2013-09-24 17:39:00,
2013-09-24 12:54:00,89.6,67.0,30.62,NW,320,4.0,-999.0,48,-99.99,,,0.00,weatherlink.com 1.10,2013-09-24 17:54:00,
2013-09-24 13:09:00,90.2,68.0,30.61,NW,319,1.0,-999.0,48,-99.99,,,0.00,weatherlink.com 1.10,2013-09-24 18:09:00,
2013-09-24 13:25:00,90.6,68.0,30.61,WNW,299,4.0,-999.0,48,-99.99,,,0.00,weatherlink.com 1.10,2013-09-24 18:25:00,
2013-09-24 13:40:00,90.8,68.0,30.60,NW,312,2.0,-999.0,47,-99.99,,,0.00,weatherlink.com 1.10,2013-09-24 18:40:00,
2013-09-24 13:55:00,91.1,68.0,30.59,NW,309,3.0,-999.0,46,-99.99,,,0.00,weatherlink.com 1.10,2013-09-24 18:55:00,
2013-09-24 14:10:00,91.5,67.0,30.58,West,264,2.0,-999.0,44,-99.99,,,0.00,weatherlink.com 1.10,2013-09-24 19:10:00,
2013-09-24 14:25:00,91.6,66.0,30.59,NNW,336,2.0,-999.0,43,-99.99,,,0.00,weatherlink.com 1.10,2013-09-24 19:25:00,
2013-09-24 14:39:00,91.9,66.0,30.58,NW,323,2.0,-999.0,42,-99.99,,,0.00,weatherlink.com 1.10,2013-09-24 19:39:00,
2013-09-24 14:54:00,92.1,66.0,30.57,NW,304,10.0,-999.0,42,-99.99,,,0.00,weatherlink.com 1.10,2013-09-24 19:54:00,
2013-09-24 15:09:00,92.2,67.0,30.57,NW,313,5.0,-999.0,43,-99.99,,,0.00,weatherlink.com 1.10,2013-09-24 20:09:00,
2013-09-24 15:25:00,92.3,65.0,30.56,NW,310,3.0,-999.0,41,-99.99,,,0.00,weatherlink.com 1.10,2013-09-24 20:25:00,
2013-09-24 15:39:00,92.9,66.0,30.56,WNW,291,5.0,-999.0,41,-99.99,,,0.00,weatherlink.com 1.10,2013-09-24 20:39:00,
2013-09-24 15:54:00,92.9,66.0,30.56,NNW,345,4.0,-999.0,41,-99.99,,,0.00,weatherlink.com 1.10,2013-09-24 20:54:00,
2013-09-24 16:25:00,92.8,66.0,30.55,NW,311,3.0,-999.0,41,-99.99,,,0.00,weatherlink.com 1.10,2013-09-24 21:25:00,
2013-09-24 16:39:00,92.6,64.0,30.55,NW,325,6.0,-999.0,39,-99.99,,,0.00,weatherlink.com 1.10,2013-09-24 21:39:00,
2013-09-24 16:54:00,92.5,63.0,30.54,NW,323,3.0,-999.0,38,-99.99,,,0.00,weatherlink.com 1.10,2013-09-24 21:54:00,
2013-09-24 17:09:00,92.5,64.0,30.55,NNW,334,1.0,-999.0,39,-99.99,,,0.00,weatherlink.com 1.10,2013-09-24 22:09:00,
2013-09-24 17:25:00,92.5,63.0,30.54,NW,306,4.0,-999.0,37,-99.99,,,0.00,weatherlink.com 1.10,2013-09-24 22:25:00,
2013-09-24 17:39:00,92.1,64.0,30.55,NW,313,2.0,-999.0,39,-99.99,,,0.00,weatherlink.com 1.10,2013-09-24 22:39:00,
2013-09-24 17:54:00,91.8,63.0,30.55,NW,317,0.0,-999.0,39,-99.99,,,0.00,weatherlink.com 1.10,2013-09-24 22:54:00,
2013-09-24 18:09:00,90.9,63.0,30.55,NW,309,3.0,-999.0,40,-99.99,,,0.00,weatherlink.com 1.10,2013-09-24 23:09:00,
2013-09-24 18:25:00,90.4,63.0,30.55,North,351,2.0,-999.0,40,-99.99,,,0.00,weatherlink.com 1.10,2013-09-24 23:25:00,
2013-09-24 18:39:00,89.4,63.0,30.55,NW,309,4.0,-999.0,42,-99.99,,,0.00,weatherlink.com 1.10,2013-09-24 23:39:00,
2013-09-24 18:54:00,88.4,63.0,30.55,NW,322,0.0,-999.0,43,-99.99,,,0.00,weatherlink.com 1.10,2013-09-24 23:54:00,
2013-09-24 19:09:00,87.2,64.0,30.56,NW,322,0.0,-999.0,46,-99.99,,,0.00,weatherlink.com 1.10,2013-09-25 00:09:00,
2013-09-24 19:25:00,86.4,65.0,30.56,NW,322,0.0,-999.0,49,-99.99,,,0.00,weatherlink.com 1.10,2013-09-25 00:25:00,
2013-09-24 19:40:00,84.1,65.0,30.56,NW,322,0.0,-999.0,53,-99.99,,,0.00,weatherlink.com 1.10,2013-09-25 00:40:00,
2013-09-24 19:55:00,81.9,66.0,30.56,NW,322,0.0,-999.0,59,-99.99,,,0.00,weatherlink.com 1.10,2013-09-25 00:55:00,
2013-09-24 20:10:00,79.6,64.0,30.57,NW,322,0.0,-999.0,60,-99.99,,,0.00,weatherlink.com 1.10,2013-09-25 01:10:00,
2013-09-24 20:25:00,78.4,65.0,30.57,NW,322,0.0,-999.0,63,-99.99,,,0.00,weatherlink.com 1.10,2013-09-25 01:25:00,
2013-09-24 20:40:00,76.4,65.0,30.57,NW,322,0.0,-999.0,68,-99.99,,,0.00,weatherlink.com 1.10,2013-09-25 01:40:00,
2013-09-24 20:55:00,75.2,64.0,30.58,NW,322,0.0,-999.0,69,-99.99,,,0.00,weatherlink.com 1.10,2013-09-25 01:55:00,
2013-09-24 21:10:00,74.4,64.0,30.59,NW,322,0.0,-999.0,70,-99.99,,,0.00,weatherlink.com 1.10,2013-09-25 02:10:00,
2013-09-24 21:25:00,73.7,63.0,30.59,NW,322,0.0,-999.0,70,-99.99,,,0.00,weatherlink.com 1.10,2013-09-25 02:25:00,
2013-09-24 21:40:00,72.8,62.0,30.59,NW,322,0.0,-999.0,70,-99.99,,,0.00,weatherlink.com 1.10,2013-09-25 02:40:00,
2013-09-24 21:55:00,72.3,62.0,30.60,NW,322,0.0,-999.0,71,-99.99,,,0.00,weatherlink.com 1.10,2013-09-25 02:55:00,
2013-09-24 22:10:00,71.7,62.0,30.61,NW,322,0.0,-999.0,71,-99.99,,,0.00,weatherlink.com 1.10,2013-09-25 03:10:00,
2013-09-24 22:25:00,71.6,62.0,30.61,NW,322,0.0,-999.0,71,-99.99,,,0.00,weatherlink.com 1.10,2013-09-25 03:25:00,
2013-09-24 22:40:00,71.1,61.0,30.61,NW,322,0.0,-999.0,71,-99.99,,,0.00,weatherlink.com 1.10,2013-09-25 03:40:00,
2013-09-24 22:55:00,70.7,61.0,30.61,NW,322,0.0,-999.0,71,-99.99,,,0.00,weatherlink.com 1.10,2013-09-25 03:55:00,
2013-09-24 23:10:00,70.5,61.0,30.60,NW,322,0.0,-999.0,72,-99.99,,,0.00,weatherlink.com 1.10,2013-09-25 04:10:00,
2013-09-24 23:25:00,70.3,61.0,30.61,NW,322,0.0,-999.0,72,-99.99,,,0.00,weatherlink.com 1.10,2013-09-25 04:25:00,
2013-09-24 23:40:00,69.9,60.0,30.61,NW,322,0.0,-999.0,71,-99.99,,,0.00,weatherlink.com 1.10,2013-09-25 04:40:00,
2013-09-24 23:55:00,69.6,60.0,30.60,NW,322,0.0,-999.0,71,-99.99,,,0.00,weatherlink.com 1.10,2013-09-25 04:55:00,